Location: Dal�� Lhota
(48.7500°N, 14.0167°E)
Time: 20:26:46
(UTC+00:00)

Transit 2A - Pass Details

Date: 27 July 2021
Orbit: 594 x 964 km, 66.7° (Epoch: 27 September)

Event Time Altitude Azimuth Distance (km) Brightness Sun altitude
Rises 06:21:17 0° 199° (SSW) 2,825 8.8 25.8°
Reaches altitude 10° 06:23:30 10° 195° (SSW) 1,940 8.0 26.2°
Maximum altitude 06:27:42 52° 119° (ESE) 778 7.3 26.9°
Drops below altitude 10° 06:32:12 10° 43° (NE) 2,078 8.9 27.6°
Sets 06:34:39 0° 39° (NE) 3,047 9.6 28.0°
